Time,TemperatureF,DewpointF,PressureIn,WindDirection,WindDirectionDegrees,WindSpeedMPH,WindSpeedGustMPH,Humidity,HourlyPrecipIn,Conditions,Clouds,dailyrainin,SoftwareType,DateUTC
2013-08-23 00:01:00,55.0,47.0,25.65,SSE,157,1.2,0.0,76,0.00,,,0.00,Rainwise IP-100,2013-08-23 07:01:00,
2013-08-23 00:06:00,55.0,47.0,25.66,ESE,112,1.2,2.0,76,0.00,,,0.00,Rainwise IP-100,2013-08-23 07:06:00,
2013-08-23 00:11:00,55.0,47.0,25.65,ESE,112,1.2,2.0,76,0.00,,,0.00,Rainwise IP-100,2013-08-23 07:11:00,
2013-08-23 00:16:00,54.9,47.0,25.65,ESE,112,0.0,1.0,76,0.00,,,0.00,Rainwise IP-100,2013-08-23 07:16:00,
2013-08-23 00:21:00,54.8,47.0,25.65,ESE,112,1.4,1.4,76,0.00,,,0.00,Rainwise IP-100,2013-08-23 07:21:00,
2013-08-23 00:26:00,54.7,47.0,25.65,ESE,112,1.2,1.2,76,0.00,,,0.00,Rainwise IP-100,2013-08-23 07:26:00,
2013-08-23 00:31:00,54.6,47.0,25.65,ESE,112,0.0,1.0,76,0.00,,,0.00,Rainwise IP-100,2013-08-23 07:31:00,
2013-08-23 00:36:00,54.6,47.0,25.65,ESE,112,0.0,0.0,75,0.00,,,0.00,Rainwise IP-100,2013-08-23 07:36:00,
2013-08-23 00:41:00,54.5,47.0,25.65,ESE,112,0.0,0.0,75,0.00,,,0.00,Rainwise IP-100,2013-08-23 07:41:00,
2013-08-23 00:46:00,54.5,47.0,25.65,ESE,112,1.2,0.0,75,0.00,,,0.00,Rainwise IP-100,2013-08-23 07:46:00,
2013-08-23 00:51:00,54.3,47.0,25.65,ESE,112,1.2,1.2,75,0.00,,,0.00,Rainwise IP-100,2013-08-23 07:51:00,
2013-08-23 00:56:00,54.1,47.0,25.65,ESE,112,0.0,1.0,75,0.00,,,0.00,Rainwise IP-100,2013-08-23 07:56:00,
2013-08-23 01:01:00,54.2,47.0,25.65,ESE,112,0.0,1.0,75,0.00,,,0.00,Rainwise IP-100,2013-08-23 08:01:00,
2013-08-23 01:06:00,54.3,47.0,25.65,ESE,112,0.0,1.0,75,0.00,,,0.00,Rainwise IP-100,2013-08-23 08:06:00,
2013-08-23 01:11:00,54.3,47.0,25.65,ESE,112,0.0,1.0,75,0.00,,,0.00,Rainwise IP-100,2013-08-23 08:11:00,
2013-08-23 01:16:00,54.2,47.0,25.65,ESE,112,0.0,0.0,76,0.00,,,0.00,Rainwise IP-100,2013-08-23 08:16:00,
2013-08-23 01:21:00,54.3,47.0,25.65,ESE,112,0.0,1.0,76,0.00,,,0.00,Rainwise IP-100,2013-08-23 08:21:00,
2013-08-23 01:26:00,54.4,47.0,25.65,ESE,112,0.0,1.0,76,0.00,,,0.00,Rainwise IP-100,2013-08-23 08:26:00,
2013-08-23 01:31:00,54.4,47.0,25.65,ESE,112,0.0,0.0,76,0.00,,,0.00,Rainwise IP-100,2013-08-23 08:31:00,
2013-08-23 01:36:00,54.4,47.0,25.65,ESE,112,0.0,0.0,76,0.00,,,0.00,Rainwise IP-100,2013-08-23 08:36:00,
2013-08-23 01:41:00,54.4,47.0,25.65,ESE,112,1.2,1.2,76,0.00,,,0.00,Rainwise IP-100,2013-08-23 08:41:00,
2013-08-23 01:46:00,54.5,47.0,25.65,ESE,112,0.0,1.0,76,0.00,,,0.00,Rainwise IP-100,2013-08-23 08:46:00,
2013-08-23 01:51:00,54.4,47.0,25.65,ESE,112,0.0,1.0,77,0.00,,,0.00,Rainwise IP-100,2013-08-23 08:51:00,
2013-08-23 01:56:00,54.4,48.0,25.65,ESE,112,0.0,1.0,78,0.00,,,0.00,Rainwise IP-100,2013-08-23 08:56:00,
2013-08-23 02:01:00,54.5,47.0,25.65,ESE,112,0.0,1.0,77,0.00,,,0.00,Rainwise IP-100,2013-08-23 09:01:00,
2013-08-23 02:06:00,54.5,47.0,25.65,ESE,112,0.0,0.0,77,0.00,,,0.00,Rainwise IP-100,2013-08-23 09:06:00,
2013-08-23 02:11:00,54.4,47.0,25.65,ESE,112,0.0,0.0,77,0.00,,,0.00,Rainwise IP-100,2013-08-23 09:11:00,
2013-08-23 02:16:00,54.2,47.0,25.65,ESE,112,0.0,0.0,77,0.00,,,0.00,Rainwise IP-100,2013-08-23 09:16:00,
2013-08-23 02:21:00,54.2,47.0,25.64,ESE,112,0.0,1.0,78,0.00,,,0.00,Rainwise IP-100,2013-08-23 09:21:00,
2013-08-23 02:26:00,54.3,47.0,25.64,ESE,112,0.0,1.0,78,0.00,,,0.00,Rainwise IP-100,2013-08-23 09:26:00,
2013-08-23 02:31:00,54.3,47.0,25.65,ESE,112,0.0,0.0,78,0.00,,,0.00,Rainwise IP-100,2013-08-23 09:31:00,
2013-08-23 02:36:00,54.2,47.0,25.65,ESE,112,0.0,0.0,79,0.00,,,0.00,Rainwise IP-100,2013-08-23 09:36:00,
2013-08-23 02:41:00,53.9,48.0,25.65,SSE,157,0.0,3.0,80,0.00,,,0.00,Rainwise IP-100,2013-08-23 09:41:00,
2013-08-23 02:46:00,53.7,47.0,25.65,SSE,157,0.0,2.0,81,0.00,,,0.00,Rainwise IP-100,2013-08-23 09:46:00,
2013-08-23 02:51:00,53.8,47.0,25.65,SSE,157,0.0,1.0,81,0.00,,,0.00,Rainwise IP-100,2013-08-23 09:51:00,
2013-08-23 02:56:00,54.0,48.0,25.65,NW,315,0.0,2.0,81,0.00,,,0.00,Rainwise IP-100,2013-08-23 09:56:00,
2013-08-23 03:01:00,54.1,48.0,25.64,NW,315,0.0,1.0,81,0.00,,,0.00,Rainwise IP-100,2013-08-23 10:01:00,
2013-08-23 03:06:00,54.2,48.0,25.65,NW,315,0.0,1.0,81,0.00,,,0.00,Rainwise IP-100,2013-08-23 10:06:00,
2013-08-23 03:11:00,54.2,48.0,25.65,NW,315,0.0,0.0,81,0.00,,,0.00,Rainwise IP-100,2013-08-23 10:11:00,
2013-08-23 03:16:00,54.2,48.0,25.65,NW,315,0.0,0.0,81,0.00,,,0.00,Rainwise IP-100,2013-08-23 10:16:00,
2013-08-23 03:21:00,54.2,48.0,25.65,NW,315,0.0,0.0,82,0.00,,,0.00,Rainwise IP-100,2013-08-23 10:21:00,
2013-08-23 03:26:00,54.1,48.0,25.65,NW,315,0.0,0.0,82,0.00,,,0.00,Rainwise IP-100,2013-08-23 10:26:00,
2013-08-23 03:31:00,54.0,49.0,25.65,SW,225,0.0,2.0,83,0.00,,,0.00,Rainwise IP-100,2013-08-23 10:31:00,
2013-08-23 03:36:00,54.0,49.0,25.65,SW,225,0.0,0.0,83,0.00,,,0.00,Rainwise IP-100,2013-08-23 10:36:00,
2013-08-23 03:41:00,54.1,49.0,25.65,ENE,67,0.0,2.0,83,0.00,,,0.00,Rainwise IP-100,2013-08-23 10:41:00,
2013-08-23 03:46:00,54.2,49.0,25.65,ENE,67,0.0,0.0,84,0.00,,,0.00,Rainwise IP-100,2013-08-23 10:46:00,
2013-08-23 03:51:00,54.1,50.0,25.65,ENE,67,0.0,0.0,85,0.00,,,0.00,Rainwise IP-100,2013-08-23 10:51:00,
2013-08-23 03:56:00,54.0,50.0,25.65,SSE,157,0.0,1.0,86,0.00,,,0.00,Rainwise IP-100,2013-08-23 10:56:00,
2013-08-23 04:01:00,53.8,50.0,25.65,SSE,157,0.0,1.0,87,0.00,,,0.00,Rainwise IP-100,2013-08-23 11:01:00,
2013-08-23 04:06:00,53.6,50.0,25.64,SSE,157,1.4,0.0,88,0.00,,,0.00,Rainwise IP-100,2013-08-23 11:06:00,
2013-08-23 04:11:00,53.5,50.0,25.64,ESE,112,2.3,3.0,89,0.00,,,0.00,Rainwise IP-100,2013-08-23 11:11:00,
2013-08-23 04:16:00,53.4,50.0,25.64,SE,135,1.9,3.0,89,0.00,,,0.00,Rainwise IP-100,2013-08-23 11:16:00,
2013-08-23 04:21:00,53.5,50.0,25.64,ESE,112,1.6,2.0,89,0.00,,,0.00,Rainwise IP-100,2013-08-23 11:21:00,
2013-08-23 04:26:00,53.4,50.0,25.63,ESE,112,0.0,3.0,90,0.00,,,0.00,Rainwise IP-100,2013-08-23 11:26:00,
2013-08-23 04:31:00,53.2,50.0,25.63,ESE,112,0.0,2.0,91,0.00,,,0.00,Rainwise IP-100,2013-08-23 11:31:00,
2013-08-23 04:36:00,53.1,50.0,25.63,ESE,112,0.0,0.0,91,0.00,,,0.00,Rainwise IP-100,2013-08-23 11:36:00,
2013-08-23 04:41:00,53.0,50.0,25.63,ESE,112,0.0,1.0,92,0.00,,,0.00,Rainwise IP-100,2013-08-23 11:41:00,
2013-08-23 04:46:00,52.9,50.0,25.63,ESE,112,1.2,1.2,92,0.00,,,0.00,Rainwise IP-100,2013-08-23 11:46:00,
2013-08-23 04:51:00,52.8,50.0,25.63,ESE,112,0.0,1.0,92,0.00,,,0.00,Rainwise IP-100,2013-08-23 11:51:00,
2013-08-23 04:56:00,52.7,50.0,25.63,ESE,112,0.0,1.0,92,0.00,,,0.00,Rainwise IP-100,2013-08-23 11:56:00,
2013-08-23 05:01:00,52.6,50.0,25.63,ESE,112,0.0,1.0,93,0.00,,,0.00,Rainwise IP-100,2013-08-23 12:01:00,
2013-08-23 05:06:00,52.6,50.0,25.63,ESE,112,1.4,0.0,93,0.00,,,0.00,Rainwise IP-100,2013-08-23 12:06:00,
2013-08-23 05:11:00,52.7,50.0,25.63,ESE,112,0.0,1.0,93,0.00,,,0.00,Rainwise IP-100,2013-08-23 12:11:00,
2013-08-23 05:16:00,52.8,50.0,25.63,NNW,337,1.6,5.0,93,0.00,,,0.00,Rainwise IP-100,2013-08-23 12:16:00,
2013-08-23 05:21:00,52.7,51.0,25.63,NNE,22,0.0,3.0,94,0.00,,,0.00,Rainwise IP-100,2013-08-23 12:21:00,
2013-08-23 05:26:00,52.7,50.0,25.63,NNE,22,0.0,2.0,93,0.00,,,0.00,Rainwise IP-100,2013-08-23 12:26:00,
2013-08-23 05:31:00,52.7,50.0,25.63,NNW,337,0.0,1.0,93,0.00,,,0.00,Rainwise IP-100,2013-08-23 12:31:00,
2013-08-23 05:36:00,52.8,50.0,25.63,ENE,67,0.0,0.0,93,0.00,,,0.00,Rainwise IP-100,2013-08-23 12:36:00,
2013-08-23 05:42:00,52.9,50.0,25.63,ENE,67,0.0,0.0,93,0.00,,,0.00,Rainwise IP-100,2013-08-23 12:42:00,
2013-08-23 05:47:00,52.8,50.0,25.63,ENE,67,0.0,1.0,93,0.00,,,0.00,Rainwise IP-100,2013-08-23 12:47:00,
2013-08-23 05:52:00,52.8,50.0,25.63,ENE,67,0.0,1.0,93,0.00,,,0.00,Rainwise IP-100,2013-08-23 12:52:00,
2013-08-23 05:57:00,52.8,50.0,25.62,ENE,67,0.0,0.0,93,0.00,,,0.00,Rainwise IP-100,2013-08-23 12:57:00,
2013-08-23 06:02:00,52.8,50.0,25.62,ENE,67,0.0,0.0,93,0.00,,,0.00,Rainwise IP-100,2013-08-23 13:02:00,
2013-08-23 06:07:00,52.8,50.0,25.61,ENE,67,0.0,0.0,93,0.00,,,0.00,Rainwise IP-100,2013-08-23 13:07:00,
2013-08-23 06:12:00,52.7,50.0,25.62,ENE,67,0.0,0.0,93,0.00,,,0.00,Rainwise IP-100,2013-08-23 13:12:00,
2013-08-23 06:17:00,52.8,50.0,25.62,ENE,67,0.0,0.0,93,0.00,,,0.00,Rainwise IP-100,2013-08-23 13:17:00,
2013-08-23 06:22:00,53.0,50.0,25.62,ESE,112,1.9,2.0,93,0.00,,,0.00,Rainwise IP-100,2013-08-23 13:22:00,
2013-08-23 06:27:00,53.1,50.0,25.62,SE,135,0.0,2.0,93,0.00,,,0.00,Rainwise IP-100,2013-08-23 13:27:00,
2013-08-23 06:32:00,53.0,50.0,25.62,SE,135,0.0,1.0,93,0.00,,,0.00,Rainwise IP-100,2013-08-23 13:32:00,
2013-08-23 06:37:00,52.8,50.0,25.63,SE,135,0.0,0.0,93,0.00,,,0.00,Rainwise IP-100,2013-08-23 13:37:00,
2013-08-23 06:42:00,52.8,50.0,25.62,SE,135,1.6,1.6,93,0.00,,,0.00,Rainwise IP-100,2013-08-23 13:42:00,
2013-08-23 06:47:00,52.7,50.0,25.63,SE,135,0.0,1.0,93,0.00,,,0.00,Rainwise IP-100,2013-08-23 13:47:00,
2013-08-23 06:52:00,52.6,50.0,25.62,SE,135,0.0,0.0,93,0.00,,,0.00,Rainwise IP-100,2013-08-23 13:52:00,
2013-08-23 06:57:00,52.5,50.0,25.62,SE,135,0.0,0.0,93,0.00,,,0.00,Rainwise IP-100,2013-08-23 13:57:00,
2013-08-23 07:02:00,52.4,50.0,25.62,SE,135,0.0,0.0,93,0.00,,,0.00,Rainwise IP-100,2013-08-23 14:02:00,
2013-08-23 07:07:00,52.3,50.0,25.63,SE,135,0.0,0.0,93,0.00,,,0.00,Rainwise IP-100,2013-08-23 14:07:00,
2013-08-23 07:12:00,52.0,50.0,25.62,SE,135,0.0,1.0,93,0.00,,,0.00,Rainwise IP-100,2013-08-23 14:12:00,
2013-08-23 07:17:00,51.9,50.0,25.63,SE,135,0.0,2.0,94,0.00,,,0.00,Rainwise IP-100,2013-08-23 14:17:00,
2013-08-23 07:22:00,52.0,50.0,25.63,SE,135,0.0,1.0,94,0.00,,,0.00,Rainwise IP-100,2013-08-23 14:22:00,
2013-08-23 07:27:00,52.1,50.0,25.63,SE,135,0.0,1.0,94,0.00,,,0.00,Rainwise IP-100,2013-08-23 14:27:00,
2013-08-23 07:32:00,52.2,50.0,25.63,SE,135,0.0,1.0,94,0.00,,,0.00,Rainwise IP-100,2013-08-23 14:32:00,
2013-08-23 07:37:00,52.4,50.0,25.63,SE,135,0.0,1.0,95,0.00,,,0.00,Rainwise IP-100,2013-08-23 14:37:00,
2013-08-23 07:42:00,52.7,51.0,25.63,SE,135,0.0,2.0,94,0.00,,,0.00,Rainwise IP-100,2013-08-23 14:42:00,
2013-08-23 07:47:00,53.3,50.0,25.63,East,90,0.0,3.0,93,0.00,,,0.00,Rainwise IP-100,2013-08-23 14:47:00,
2013-08-23 07:52:00,53.8,51.0,25.62,SE,135,0.0,2.0,93,0.00,,,0.00,Rainwise IP-100,2013-08-23 14:52:00,
2013-08-23 07:57:00,54.0,52.0,25.63,NNW,337,2.6,2.6,92,0.00,,,0.00,Rainwise IP-100,2013-08-23 14:57:00,
2013-08-23 08:02:00,54.1,52.0,25.63,NNW,337,1.6,3.0,92,0.00,,,0.00,Rainwise IP-100,2013-08-23 15:02:00,
2013-08-23 08:07:00,54.3,52.0,25.63,NNW,337,0.0,1.0,92,0.00,,,0.00,Rainwise IP-100,2013-08-23 15:07:00,
2013-08-23 08:12:00,54.6,52.0,25.63,NNW,337,0.0,2.0,91,0.00,,,0.00,Rainwise IP-100,2013-08-23 15:12:00,
2013-08-23 08:17:00,54.9,53.0,25.63,NNW,337,0.0,1.0,90,0.00,,,0.00,Rainwise IP-100,2013-08-23 15:17:00,
2013-08-23 08:22:00,55.1,53.0,25.63,NNW,337,0.0,0.0,90,0.00,,,0.00,Rainwise IP-100,2013-08-23 15:22:00,
2013-08-23 08:27:00,55.4,52.0,25.63,NNW,337,0.0,0.0,89,0.00,,,0.00,Rainwise IP-100,2013-08-23 15:27:00,
2013-08-23 08:32:00,55.6,53.0,25.63,NNW,337,2.1,2.1,88,0.00,,,0.00,Rainwise IP-100,2013-08-23 15:32:00,
2013-08-23 08:37:00,55.8,52.0,25.63,NNW,337,1.2,3.0,87,0.00,,,0.00,Rainwise IP-100,2013-08-23 15:37:00,
2013-08-23 08:42:00,55.9,52.0,25.63,NNW,337,0.0,2.0,87,0.00,,,0.00,Rainwise IP-100,2013-08-23 15:42:00,
2013-08-23 08:47:00,56.1,52.0,25.63,NNW,337,0.0,1.0,86,0.00,,,0.00,Rainwise IP-100,2013-08-23 15:47:00,
2013-08-23 08:52:00,56.3,52.0,25.63,NNW,337,0.0,0.0,86,0.00,,,0.00,Rainwise IP-100,2013-08-23 15:52:00,
2013-08-23 08:57:00,56.6,53.0,25.63,NNW,337,3.3,4.0,86,0.00,,,0.00,Rainwise IP-100,2013-08-23 15:57:00,
2013-08-23 09:02:00,57.0,53.0,25.63,NNW,337,4.2,4.2,85,0.00,,,0.00,Rainwise IP-100,2013-08-23 16:02:00,
2013-08-23 09:07:00,57.4,53.0,25.63,NNE,22,2.1,4.0,84,0.00,,,0.00,Rainwise IP-100,2013-08-23 16:07:00,
2013-08-23 09:12:00,57.7,53.0,25.63,NNW,337,2.3,4.0,83,0.00,,,0.00,Rainwise IP-100,2013-08-23 16:12:00,
2013-08-23 09:17:00,57.9,53.0,25.63,NNW,337,3.3,4.0,82,0.00,,,0.00,Rainwise IP-100,2013-08-23 16:17:00,
2013-08-23 09:22:00,58.0,53.0,25.63,NNW,337,3.0,5.0,82,0.00,,,0.00,Rainwise IP-100,2013-08-23 16:22:00,
2013-08-23 09:27:00,58.1,53.0,25.63,NNW,337,1.2,3.0,82,0.00,,,0.00,Rainwise IP-100,2013-08-23 16:27:00,
2013-08-23 09:32:00,58.1,53.0,25.63,NNW,337,0.0,1.0,81,0.00,,,0.00,Rainwise IP-100,2013-08-23 16:32:00,
2013-08-23 09:37:00,58.1,53.0,25.63,NNW,337,0.0,0.0,81,0.00,,,0.00,Rainwise IP-100,2013-08-23 16:37:00,
2013-08-23 09:42:00,58.3,53.0,25.63,NNW,337,0.0,1.0,81,0.00,,,0.00,Rainwise IP-100,2013-08-23 16:42:00,
2013-08-23 09:47:00,58.9,53.0,25.63,WNW,292,1.4,3.0,80,0.00,,,0.00,Rainwise IP-100,2013-08-23 16:47:00,
2013-08-23 09:52:00,59.8,53.0,25.63,NE,45,1.6,2.0,78,0.00,,,0.00,Rainwise IP-100,2013-08-23 16:52:00,
2013-08-23 09:57:00,60.1,52.0,25.63,SSW,202,1.9,4.0,75,0.00,,,0.00,Rainwise IP-100,2013-08-23 16:57:00,
2013-08-23 10:02:00,60.4,52.0,25.63,SW,225,3.0,3.0,73,0.00,,,0.00,Rainwise IP-100,2013-08-23 17:02:00,
2013-08-23 10:07:00,60.9,52.0,25.63,SSW,202,4.7,5.0,72,0.00,,,0.00,Rainwise IP-100,2013-08-23 17:07:00,
2013-08-23 10:12:00,61.1,51.0,25.63,SSE,157,2.3,7.0,70,0.00,,,0.00,Rainwise IP-100,2013-08-23 17:12:00,
2013-08-23 10:17:00,61.5,51.0,25.63,SSW,202,3.0,3.0,69,0.00,,,0.00,Rainwise IP-100,2013-08-23 17:17:00,
2013-08-23 10:22:00,61.9,51.0,25.63,ESE,112,3.7,6.0,68,0.00,,,0.00,Rainwise IP-100,2013-08-23 17:22:00,
2013-08-23 10:27:00,62.0,51.0,25.63,SSW,202,4.2,9.0,68,0.00,,,0.00,Rainwise IP-100,2013-08-23 17:27:00,
2013-08-23 10:32:00,61.9,51.0,25.64,SSW,202,0.0,8.0,67,0.00,,,0.00,Rainwise IP-100,2013-08-23 17:32:00,
2013-08-23 10:37:00,61.6,50.0,25.63,SSE,157,2.8,6.0,68,0.00,,,0.00,Rainwise IP-100,2013-08-23 17:37:00,
2013-08-23 10:42:00,61.5,50.0,25.64,SSW,202,8.2,10.0,67,0.00,,,0.00,Rainwise IP-100,2013-08-23 17:42:00,
2013-08-23 10:47:00,61.5,50.0,25.63,SSW,202,1.2,10.0,66,0.00,,,0.00,Rainwise IP-100,2013-08-23 17:47:00,
2013-08-23 10:52:00,61.7,50.0,25.64,SSW,202,5.4,9.0,66,0.00,,,0.00,Rainwise IP-100,2013-08-23 17:52:00,
2013-08-23 10:57:00,62.1,50.0,25.64,SSW,202,3.3,8.0,65,0.00,,,0.00,Rainwise IP-100,2013-08-23 17:57:00,
2013-08-23 11:02:00,62.4,50.0,25.63,SE,135,0.0,8.0,64,0.00,,,0.00,Rainwise IP-100,2013-08-23 18:02:00,
2013-08-23 11:07:00,62.8,50.0,25.63,South,180,1.6,7.0,64,0.00,,,0.00,Rainwise IP-100,2013-08-23 18:07:00,
2013-08-23 11:12:00,63.2,50.0,25.63,SSE,157,1.2,7.0,64,0.00,,,0.00,Rainwise IP-100,2013-08-23 18:12:00,
2013-08-23 11:17:00,63.1,50.0,25.63,South,180,4.7,10.0,64,0.00,,,0.00,Rainwise IP-100,2013-08-23 18:17:00,
2013-08-23 11:22:00,63.0,51.0,25.63,SE,135,1.4,9.0,65,0.00,,,0.00,Rainwise IP-100,2013-08-23 18:22:00,
2013-08-23 11:27:00,63.0,51.0,25.63,South,180,1.2,4.0,66,0.00,,,0.00,Rainwise IP-100,2013-08-23 18:27:00,
2013-08-23 11:32:00,63.3,51.0,25.64,WSW,247,1.4,4.0,65,0.00,,,0.00,Rainwise IP-100,2013-08-23 18:32:00,
2013-08-23 11:37:00,63.2,51.0,25.63,SE,135,0.0,5.0,65,0.00,,,0.00,Rainwise IP-100,2013-08-23 18:37:00,
2013-08-23 11:42:00,62.8,50.0,25.63,SE,135,0.0,6.0,65,0.00,,,0.00,Rainwise IP-100,2013-08-23 18:42:00,
2013-08-23 11:47:00,62.5,51.0,25.63,SSW,202,2.3,6.0,66,0.00,,,0.00,Rainwise IP-100,2013-08-23 18:47:00,
2013-08-23 11:52:00,62.6,51.0,25.63,South,180,0.0,6.0,66,0.00,,,0.00,Rainwise IP-100,2013-08-23 18:52:00,
2013-08-23 11:57:00,62.8,51.0,25.63,SE,135,0.0,6.0,66,0.00,,,0.00,Rainwise IP-100,2013-08-23 18:57:00,
2013-08-23 12:02:00,63.2,51.0,25.63,SSW,202,2.1,4.0,66,0.00,,,0.00,Rainwise IP-100,2013-08-23 19:02:00,
2013-08-23 12:07:00,63.5,51.0,25.63,SSW,202,1.9,6.0,65,0.00,,,0.00,Rainwise IP-100,2013-08-23 19:07:00,
2013-08-23 12:12:00,63.5,51.0,25.62,SSW,202,4.0,6.0,65,0.00,,,0.00,Rainwise IP-100,2013-08-23 19:12:00,
2013-08-23 12:17:00,63.5,51.0,25.62,SE,135,3.7,6.0,65,0.00,,,0.00,Rainwise IP-100,2013-08-23 19:17:00,
2013-08-23 12:22:00,63.6,51.0,25.62,ESE,112,0.0,6.0,65,0.00,,,0.00,Rainwise IP-100,2013-08-23 19:22:00,
2013-08-23 12:27:00,63.9,51.0,25.62,SW,225,1.6,3.0,64,0.00,,,0.00,Rainwise IP-100,2013-08-23 19:27:00,
2013-08-23 12:32:00,64.6,51.0,25.62,SW,225,2.8,11.0,62,0.00,,,0.00,Rainwise IP-100,2013-08-23 19:32:00,
2013-08-23 12:37:00,64.8,50.0,25.62,SW,225,2.8,7.0,61,0.00,,,0.00,Rainwise IP-100,2013-08-23 19:37:00,
2013-08-23 12:42:00,64.7,50.0,25.62,SSW,202,5.1,7.0,60,0.00,,,0.00,Rainwise IP-100,2013-08-23 19:42:00,
2013-08-23 12:47:00,64.9,50.0,25.62,SSW,202,2.1,6.0,60,0.00,,,0.00,Rainwise IP-100,2013-08-23 19:47:00,
2013-08-23 12:52:00,65.3,50.0,25.62,SW,225,3.5,5.0,58,0.00,,,0.00,Rainwise IP-100,2013-08-23 19:52:00,
2013-08-23 12:57:00,65.9,50.0,25.62,NNW,337,4.9,4.9,58,0.00,,,0.00,Rainwise IP-100,2013-08-23 19:57:00,
2013-08-23 13:02:00,66.3,52.0,25.62,NNW,337,4.7,6.0,60,0.00,,,0.00,Rainwise IP-100,2013-08-23 20:02:00,
2013-08-23 13:07:00,66.3,53.0,25.62,North,360,6.1,10.0,62,0.00,,,0.00,Rainwise IP-100,2013-08-23 20:07:00,
2013-08-23 13:12:00,65.6,53.0,25.62,North,360,8.2,12.0,64,0.00,,,0.00,Rainwise IP-100,2013-08-23 20:12:00,
2013-08-23 13:17:00,64.5,53.0,25.63,SE,135,2.1,14.0,67,0.00,,,0.00,Rainwise IP-100,2013-08-23 20:17:00,
2013-08-23 13:22:00,63.5,53.0,25.63,NNE,22,4.0,10.0,69,0.00,,,0.00,Rainwise IP-100,2013-08-23 20:22:00,
2013-08-23 13:27:00,62.5,53.0,25.63,NNW,337,6.1,9.0,71,0.00,,,0.00,Rainwise IP-100,2013-08-23 20:27:00,
2013-08-23 13:32:00,61.4,53.0,25.63,NNE,22,7.5,11.0,73,0.00,,,0.00,Rainwise IP-100,2013-08-23 20:32:00,
2013-08-23 13:37:00,60.5,53.0,25.63,NNE,22,3.7,12.0,75,0.00,,,0.00,Rainwise IP-100,2013-08-23 20:37:00,
2013-08-23 13:42:00,60.3,53.0,25.63,NNW,337,8.4,11.0,77,0.00,,,0.00,Rainwise IP-100,2013-08-23 20:42:00,
2013-08-23 13:47:00,60.2,53.0,25.64,NNW,337,6.3,10.0,77,0.00,,,0.00,Rainwise IP-100,2013-08-23 20:47:00,
2013-08-23 13:52:00,60.3,53.0,25.64,NNE,22,5.6,10.0,78,0.00,,,0.00,Rainwise IP-100,2013-08-23 20:52:00,
2013-08-23 13:57:00,60.3,53.0,25.64,NNW,337,2.1,9.0,78,0.00,,,0.00,Rainwise IP-100,2013-08-23 20:57:00,
2013-08-23 14:02:00,60.1,53.0,25.64,ENE,67,0.0,8.0,78,0.00,,,0.00,Rainwise IP-100,2013-08-23 21:02:00,
2013-08-23 14:07:00,59.7,53.0,25.64,NNW,337,2.6,9.0,79,0.00,,,0.00,Rainwise IP-100,2013-08-23 21:07:00,
2013-08-23 14:12:00,59.2,53.0,25.65,NNE,22,2.8,6.0,80,0.00,,,0.00,Rainwise IP-100,2013-08-23 21:12:00,
2013-08-23 14:17:00,58.9,53.0,25.65,NNW,337,5.4,9.0,81,0.00,,,0.00,Rainwise IP-100,2013-08-23 21:17:00,
2013-08-23 14:22:00,58.7,53.0,25.65,NNE,22,4.4,7.0,82,0.00,,,0.00,Rainwise IP-100,2013-08-23 21:22:00,
2013-08-23 14:27:00,58.3,53.0,25.65,NNE,22,3.3,6.0,83,0.00,,,0.00,Rainwise IP-100,2013-08-23 21:27:00,
2013-08-23 14:32:00,58.1,53.0,25.65,NNW,337,5.1,5.1,83,0.00,,,0.00,Rainwise IP-100,2013-08-23 21:32:00,
2013-08-23 14:37:00,58.0,53.0,25.65,NNW,337,6.8,7.0,84,0.00,,,0.00,Rainwise IP-100,2013-08-23 21:37:00,
2013-08-23 14:42:00,57.7,53.0,25.65,NNW,337,6.3,8.0,84,0.00,,,0.00,Rainwise IP-100,2013-08-23 21:42:00,
2013-08-23 14:47:00,57.3,53.0,25.64,NW,315,4.0,7.0,85,0.00,,,0.00,Rainwise IP-100,2013-08-23 21:47:00,
2013-08-23 14:52:00,57.1,53.0,25.65,NNW,337,4.4,6.0,85,0.00,,,0.00,Rainwise IP-100,2013-08-23 21:52:00,
2013-08-23 14:57:00,56.9,53.0,25.64,WNW,292,1.6,5.0,86,0.00,,,0.00,Rainwise IP-100,2013-08-23 21:57:00,
2013-08-23 15:02:00,56.8,53.0,25.64,NW,315,1.6,3.0,87,0.00,,,0.00,Rainwise IP-100,2013-08-23 22:02:00,
2013-08-23 15:07:00,57.3,53.0,25.64,NNW,337,4.0,4.0,87,0.00,,,0.00,Rainwise IP-100,2013-08-23 22:07:00,
2013-08-23 15:12:00,58.5,54.0,25.64,NNW,337,1.6,5.0,84,0.00,,,0.00,Rainwise IP-100,2013-08-23 22:12:00,
2013-08-23 15:17:00,59.4,53.0,25.64,NNW,337,6.1,7.0,81,0.00,,,0.00,Rainwise IP-100,2013-08-23 22:17:00,
2013-08-23 15:22:00,59.9,54.0,25.64,North,360,5.1,9.0,80,0.00,,,0.00,Rainwise IP-100,2013-08-23 22:22:00,
2013-08-23 15:27:00,60.4,54.0,25.64,NNW,337,6.1,7.0,79,0.00,,,0.00,Rainwise IP-100,2013-08-23 22:27:00,
2013-08-23 15:32:00,60.7,53.0,25.64,NNW,337,5.4,8.0,78,0.00,,,0.00,Rainwise IP-100,2013-08-23 22:32:00,
2013-08-23 15:37:00,60.5,53.0,25.64,NNW,337,6.3,10.0,78,0.00,,,0.00,Rainwise IP-100,2013-08-23 22:37:00,
2013-08-23 15:42:00,60.3,53.0,25.64,North,360,5.1,11.0,79,0.00,,,0.00,Rainwise IP-100,2013-08-23 22:42:00,
2013-08-23 15:47:00,59.8,53.0,25.64,North,360,6.3,10.0,80,0.00,,,0.00,Rainwise IP-100,2013-08-23 22:47:00,
2013-08-23 15:52:00,59.0,53.0,25.64,NNW,337,8.6,10.0,81,0.00,,,0.00,Rainwise IP-100,2013-08-23 22:52:00,
2013-08-23 15:57:00,58.2,53.0,25.64,NNW,337,4.0,9.0,82,0.00,,,0.00,Rainwise IP-100,2013-08-23 22:57:00,
2013-08-23 16:02:00,57.4,53.0,25.64,North,360,4.4,9.0,84,0.00,,,0.00,Rainwise IP-100,2013-08-23 23:02:00,
2013-08-23 16:07:00,56.6,53.0,25.65,NNW,337,3.3,7.0,86,0.00,,,0.00,Rainwise IP-100,2013-08-23 23:07:00,
2013-08-23 16:12:00,55.9,53.0,25.65,North,360,5.6,6.0,88,0.00,,,0.00,Rainwise IP-100,2013-08-23 23:12:00,
2013-08-23 16:17:00,55.5,53.0,25.64,ENE,67,0.0,6.0,89,0.00,,,0.00,Rainwise IP-100,2013-08-23 23:17:00,
2013-08-23 16:22:00,55.1,52.0,25.65,NNE,22,1.2,5.0,89,0.00,,,0.00,Rainwise IP-100,2013-08-23 23:22:00,
2013-08-23 16:27:00,55.1,53.0,25.65,NNW,337,3.5,4.0,90,0.00,,,0.00,Rainwise IP-100,2013-08-23 23:27:00,
2013-08-23 16:32:00,55.0,53.0,25.65,NW,315,2.3,4.0,91,0.00,,,0.00,Rainwise IP-100,2013-08-23 23:32:00,
2013-08-23 16:37:00,54.8,52.0,25.65,WNW,292,1.4,3.0,91,0.00,,,0.00,Rainwise IP-100,2013-08-23 23:37:00,
2013-08-23 16:42:00,54.6,53.0,25.64,NNW,337,2.3,4.0,92,0.00,,,0.00,Rainwise IP-100,2013-08-23 23:42:00,
2013-08-23 16:47:00,54.5,53.0,25.64,NW,315,1.4,4.0,92,0.00,,,0.00,Rainwise IP-100,2013-08-23 23:47:00,
2013-08-23 16:52:00,54.5,53.0,25.64,NNW,337,1.6,3.0,92,0.00,,,0.00,Rainwise IP-100,2013-08-23 23:52:00,
2013-08-23 16:57:00,54.4,53.0,25.64,NNW,337,0.0,2.0,93,0.00,,,0.00,Rainwise IP-100,2013-08-23 23:57:00,
2013-08-23 17:02:00,54.5,53.0,25.64,NNW,337,0.0,1.0,93,0.00,,,0.00,Rainwise IP-100,2013-08-24 00:02:00,
2013-08-23 17:07:00,54.5,53.0,25.64,NNW,337,2.3,2.3,93,0.00,,,0.00,Rainwise IP-100,2013-08-24 00:07:00,
2013-08-23 17:12:00,54.7,53.0,25.64,NNW,337,2.8,4.0,92,0.00,,,0.00,Rainwise IP-100,2013-08-24 00:12:00,
2013-08-23 17:17:00,55.0,53.0,25.64,NNW,337,2.1,4.0,92,0.00,,,0.00,Rainwise IP-100,2013-08-24 00:17:00,
2013-08-23 17:22:00,55.1,53.0,25.64,NNW,337,4.9,4.9,91,0.00,,,0.00,Rainwise IP-100,2013-08-24 00:22:00,
2013-08-23 17:27:00,55.2,53.0,25.64,NNW,337,4.9,5.0,91,0.00,,,0.00,Rainwise IP-100,2013-08-24 00:27:00,
2013-08-23 17:32:00,54.9,53.0,25.64,NNW,337,5.4,5.4,92,0.00,,,0.00,Rainwise IP-100,2013-08-24 00:32:00,
2013-08-23 17:37:00,54.4,53.0,25.64,NNW,337,2.6,5.0,93,0.00,,,0.00,Rainwise IP-100,2013-08-24 00:37:00,
2013-08-23 17:42:00,54.0,52.0,25.64,NNW,337,2.3,4.0,94,0.00,,,0.00,Rainwise IP-100,2013-08-24 00:42:00,
2013-08-23 17:47:00,53.7,52.0,25.64,NNW,337,4.4,5.0,94,0.00,,,0.00,Rainwise IP-100,2013-08-24 00:47:00,
2013-08-23 17:52:00,53.6,52.0,25.64,NNW,337,3.3,5.0,95,0.00,,,0.00,Rainwise IP-100,2013-08-24 00:52:00,
2013-08-23 17:57:00,53.5,52.0,25.64,NNW,337,1.9,4.0,96,0.00,,,0.00,Rainwise IP-100,2013-08-24 00:57:00,
2013-08-23 18:02:00,53.5,52.0,25.64,NW,315,2.6,3.0,96,0.00,,,0.00,Rainwise IP-100,2013-08-24 01:02:00,
2013-08-23 18:07:00,53.4,52.0,25.64,NW,315,1.9,3.0,96,0.00,,,0.00,Rainwise IP-100,2013-08-24 01:07:00,
2013-08-23 18:12:00,53.3,51.0,25.64,NW,315,1.9,3.0,96,0.00,,,0.00,Rainwise IP-100,2013-08-24 01:12:00,
2013-08-23 18:17:00,53.3,52.0,25.64,NNW,337,3.3,3.3,97,0.00,,,0.00,Rainwise IP-100,2013-08-24 01:17:00,
2013-08-23 18:22:00,53.5,52.0,25.63,NNW,337,4.0,4.0,96,0.00,,,0.00,Rainwise IP-100,2013-08-24 01:22:00,
2013-08-23 18:27:00,53.5,52.0,25.63,NNW,337,3.0,5.0,96,0.00,,,0.00,Rainwise IP-100,2013-08-24 01:27:00,
2013-08-23 18:32:00,53.4,52.0,25.64,NNW,337,3.0,4.0,96,0.00,,,0.00,Rainwise IP-100,2013-08-24 01:32:00,
2013-08-23 18:37:00,53.3,52.0,25.64,NNW,337,2.8,4.0,97,0.00,,,0.00,Rainwise IP-100,2013-08-24 01:37:00,
2013-08-23 18:42:00,53.1,52.0,25.63,North,360,3.5,6.0,97,0.00,,,0.00,Rainwise IP-100,2013-08-24 01:42:00,
2013-08-23 18:47:00,52.9,52.0,25.64,NNW,337,1.9,6.0,97,0.00,,,0.00,Rainwise IP-100,2013-08-24 01:47:00,
2013-08-23 18:52:00,52.6,52.0,25.63,NNW,337,2.3,5.0,97,0.00,,,0.00,Rainwise IP-100,2013-08-24 01:52:00,
2013-08-23 18:57:00,52.5,52.0,25.64,NNW,337,2.3,4.0,98,0.00,,,0.00,Rainwise IP-100,2013-08-24 01:57:00,
2013-08-23 19:02:00,52.5,52.0,25.63,NNW,337,3.0,4.0,98,0.00,,,0.00,Rainwise IP-100,2013-08-24 02:02:00,
2013-08-23 19:07:00,52.5,52.0,25.63,NNW,337,3.3,4.0,98,0.00,,,0.00,Rainwise IP-100,2013-08-24 02:07:00,
2013-08-23 19:12:00,52.5,52.0,25.63,NNW,337,1.9,4.0,98,0.00,,,0.00,Rainwise IP-100,2013-08-24 02:12:00,
2013-08-23 19:17:00,52.5,52.0,25.63,NNW,337,4.0,4.0,98,0.00,,,0.00,Rainwise IP-100,2013-08-24 02:17:00,
2013-08-23 19:22:00,52.6,52.0,25.63,NNW,337,3.0,5.0,98,0.00,,,0.00,Rainwise IP-100,2013-08-24 02:22:00,
2013-08-23 19:27:00,52.5,52.0,25.63,NW,315,2.6,3.0,98,0.00,,,0.00,Rainwise IP-100,2013-08-24 02:27:00,
2013-08-23 19:32:00,52.4,52.0,25.63,NNW,337,1.9,4.0,99,0.00,,,0.00,Rainwise IP-100,2013-08-24 02:32:00,
2013-08-23 19:37:00,52.3,52.0,25.63,NW,315,0.0,3.0,99,0.00,,,0.00,Rainwise IP-100,2013-08-24 02:37:00,
2013-08-23 19:42:00,52.2,52.0,25.63,WNW,292,0.0,2.0,99,0.00,,,0.00,Rainwise IP-100,2013-08-24 02:42:00,
2013-08-23 19:47:00,52.2,52.0,25.63,NNW,337,2.6,2.6,99,0.00,,,0.00,Rainwise IP-100,2013-08-24 02:47:00,
2013-08-23 19:52:00,52.2,52.0,25.63,NNW,337,2.6,5.0,99,0.00,,,0.00,Rainwise IP-100,2013-08-24 02:52:00,
2013-08-23 19:57:00,52.3,52.0,25.63,North,360,1.2,4.0,100,0.00,,,0.00,Rainwise IP-100,2013-08-24 02:57:00,
2013-08-23 20:02:00,52.1,52.0,25.63,North,360,2.8,3.0,100,0.00,,,0.00,Rainwise IP-100,2013-08-24 03:02:00,
2013-08-23 20:07:00,52.1,52.0,25.63,NNW,337,2.3,3.0,100,0.00,,,0.00,Rainwise IP-100,2013-08-24 03:07:00,
2013-08-23 20:12:00,52.1,52.0,25.63,NNW,337,3.7,3.7,100,0.00,,,0.00,Rainwise IP-100,2013-08-24 03:12:00,
2013-08-23 20:17:00,52.0,52.0,25.63,NNW,337,0.0,4.0,100,0.00,,,0.00,Rainwise IP-100,2013-08-24 03:17:00,
2013-08-23 20:22:00,51.9,52.0,25.63,NNE,22,1.4,4.0,100,0.00,,,0.00,Rainwise IP-100,2013-08-24 03:22:00,
2013-08-23 20:27:00,51.8,52.0,25.64,NNW,337,1.6,4.0,100,0.00,,,0.00,Rainwise IP-100,2013-08-24 03:27:00,
2013-08-23 20:32:00,51.8,52.0,25.64,NNW,337,1.6,5.0,100,0.00,,,0.00,Rainwise IP-100,2013-08-24 03:32:00,
2013-08-23 20:37:00,51.7,52.0,25.64,NNW,337,2.3,3.0,100,0.00,,,0.00,Rainwise IP-100,2013-08-24 03:37:00,
2013-08-23 20:42:00,51.7,52.0,25.64,North,360,2.1,3.0,100,0.00,,,0.00,Rainwise IP-100,2013-08-24 03:42:00,
2013-08-23 20:47:00,51.6,52.0,25.64,NNW,337,2.6,3.0,100,0.00,,,0.00,Rainwise IP-100,2013-08-24 03:47:00,
2013-08-23 20:52:00,51.6,52.0,25.64,NNW,337,2.3,3.0,100,0.00,,,0.00,Rainwise IP-100,2013-08-24 03:52:00,
2013-08-23 20:57:00,51.7,52.0,25.64,NNW,337,2.6,3.0,100,0.00,,,0.00,Rainwise IP-100,2013-08-24 03:57:00,
2013-08-23 21:01:00,51.7,52.0,25.64,NNW,337,2.3,4.0,100,0.00,,,0.00,Rainwise IP-100,2013-08-24 04:01:00,
2013-08-23 21:06:00,51.6,52.0,25.64,NNW,337,0.0,3.0,100,0.00,,,0.00,Rainwise IP-100,2013-08-24 04:06:00,
2013-08-23 21:11:00,51.5,52.0,25.64,NNW,337,1.6,4.0,100,0.00,,,0.00,Rainwise IP-100,2013-08-24 04:11:00,
2013-08-23 21:16:00,51.4,51.0,25.64,NNW,337,0.0,2.0,100,0.00,,,0.00,Rainwise IP-100,2013-08-24 04:16:00,
2013-08-23 21:21:00,51.4,51.0,25.64,NNW,337,1.9,3.0,100,0.00,,,0.00,Rainwise IP-100,2013-08-24 04:21:00,
2013-08-23 21:26:00,51.4,51.0,25.64,NNW,337,1.9,3.0,100,0.00,,,0.00,Rainwise IP-100,2013-08-24 04:26:00,
2013-08-23 21:31:00,51.4,51.0,25.64,NNW,337,0.0,3.0,100,0.00,,,0.00,Rainwise IP-100,2013-08-24 04:31:00,
2013-08-23 21:36:00,51.4,51.0,25.63,NNW,337,3.3,3.3,100,0.00,,,0.00,Rainwise IP-100,2013-08-24 04:36:00,
2013-08-23 21:41:00,51.4,51.0,25.63,NNW,337,2.1,3.0,100,0.00,,,0.00,Rainwise IP-100,2013-08-24 04:41:00,
2013-08-23 21:46:00,51.4,51.0,25.63,NNW,337,3.3,3.3,100,0.00,,,0.00,Rainwise IP-100,2013-08-24 04:46:00,
2013-08-23 21:51:00,51.4,51.0,25.64,NNW,337,1.9,3.0,100,0.00,,,0.00,Rainwise IP-100,2013-08-24 04:51:00,
2013-08-23 21:56:00,51.4,51.0,25.63,NNW,337,2.6,3.0,100,0.00,,,0.00,Rainwise IP-100,2013-08-24 04:56:00,
2013-08-23 22:01:00,51.3,51.0,25.64,NNW,337,1.4,3.0,100,0.00,,,0.00,Rainwise IP-100,2013-08-24 05:01:00,
2013-08-23 22:06:00,51.3,51.0,25.63,NNW,337,2.8,3.0,100,0.00,,,0.00,Rainwise IP-100,2013-08-24 05:06:00,
2013-08-23 22:11:00,51.2,51.0,25.63,NNW,337,2.3,3.0,100,0.00,,,0.00,Rainwise IP-100,2013-08-24 05:11:00,
2013-08-23 22:16:00,51.3,51.0,25.63,NNW,337,2.8,3.0,100,0.00,,,0.00,Rainwise IP-100,2013-08-24 05:16:00,
2013-08-23 22:21:00,51.4,51.0,25.63,NNW,337,3.3,3.3,100,0.00,,,0.00,Rainwise IP-100,2013-08-24 05:21:00,
2013-08-23 22:26:00,51.3,51.0,25.63,NW,315,3.0,4.0,100,0.00,,,0.00,Rainwise IP-100,2013-08-24 05:26:00,
2013-08-23 22:31:00,51.3,51.0,25.63,NNW,337,2.6,4.0,100,0.00,,,0.00,Rainwise IP-100,2013-08-24 05:31:00,
2013-08-23 22:36:00,51.2,51.0,25.63,NNW,337,3.0,4.0,100,0.00,,,0.00,Rainwise IP-100,2013-08-24 05:36:00,
2013-08-23 22:41:00,51.1,51.0,25.63,North,360,3.0,4.0,100,0.00,,,0.00,Rainwise IP-100,2013-08-24 05:41:00,
2013-08-23 22:46:00,51.0,51.0,25.63,NNE,22,3.7,6.0,100,0.00,,,0.00,Rainwise IP-100,2013-08-24 05:46:00,
2013-08-23 22:51:00,50.9,51.0,25.63,NNW,337,1.4,4.0,100,0.00,,,0.00,Rainwise IP-100,2013-08-24 05:51:00,
2013-08-23 22:56:00,50.9,51.0,25.63,NNE,22,4.7,4.7,100,0.00,,,0.00,Rainwise IP-100,2013-08-24 05:56:00,
2013-08-23 23:01:00,50.9,51.0,25.63,NNE,22,1.6,5.0,100,0.00,,,0.00,Rainwise IP-100,2013-08-24 06:01:00,
2013-08-23 23:06:00,50.8,50.0,25.63,NNE,22,3.0,4.0,100,0.00,,,0.00,Rainwise IP-100,2013-08-24 06:06:00,
2013-08-23 23:11:00,50.8,50.0,25.63,North,360,3.7,4.0,100,0.00,,,0.00,Rainwise IP-100,2013-08-24 06:11:00,
2013-08-23 23:16:00,50.8,50.0,25.63,NNE,22,3.0,4.0,100,0.00,,,0.00,Rainwise IP-100,2013-08-24 06:16:00,
2013-08-23 23:21:00,50.8,50.0,25.63,NNW,337,1.6,4.0,100,0.00,,,0.00,Rainwise IP-100,2013-08-24 06:21:00,
2013-08-23 23:26:00,50.8,50.0,25.63,NNW,337,0.0,4.0,100,0.00,,,0.00,Rainwise IP-100,2013-08-24 06:26:00,
2013-08-23 23:31:00,50.7,50.0,25.63,NNW,337,2.1,5.0,100,0.00,,,0.00,Rainwise IP-100,2013-08-24 06:31:00,
2013-08-23 23:36:00,50.7,50.0,25.62,NNW,337,0.0,3.0,100,0.00,,,0.00,Rainwise IP-100,2013-08-24 06:36:00,
2013-08-23 23:41:00,50.7,50.0,25.63,NNW,337,1.2,3.0,100,0.00,,,0.00,Rainwise IP-100,2013-08-24 06:41:00,
2013-08-23 23:46:00,50.7,50.0,25.63,NNW,337,2.1,4.0,100,0.00,,,0.00,Rainwise IP-100,2013-08-24 06:46:00,
2013-08-23 23:51:00,50.7,50.0,25.63,NNW,337,1.9,3.0,100,0.00,,,0.00,Rainwise IP-100,2013-08-24 06:51:00,
2013-08-23 23:56:00,50.6,50.0,25.63,North,360,0.0,3.0,100,0.00,,,0.00,Rainwise IP-100,2013-08-24 06:56:00,